map of GYY home
GYY - Airport
Location
City:  Gary, Indiana, United States
Name:Gary/Chicago International Airport
ICAO:KGYY
IATA:GYY
FAA LID:GYY

Details
Type:Airport (Part 139 Class I)
Use:Public/Civil
Latitude:4137'02"N (41.617250)
Longitude:8724'52"W (-87.414527)
Datum:WGS 1984
Elevation:596 ft (182 m)
Variation:4.11W (WMM2015 magnetic declination)
-0.06 annual change
Runways:2
Longest:8859 × 150 ft (2700 × 45.5 m), paved

Time
Time Zone:UTC-6 (DST-5)
Local Time:

Weather
METAR:KGYY 182245Z VRB06KT 10SM BKN150 BKN250 22/18 A2992
TAF:KGYY 182059Z 1821/1918 36009KT P6SM BKN020 BKN100
FM182300 03007KT P6SM FEW010 BKN100
FM191400 09007KT P6SM BKN060 PROB30 1914/1918 4SM TSRA OVC030CB

Related Locations
Nearby:
Farthest:YAUG: 11115 mi / 17888 km
Augusta [Augusta Airport], WA, AU

Find:

   beyond  
but within

Other Information
Maps:
NOTAMs:
Links:
Sources:

  
  • flag of United States
  • flag of Indiana
  

Airport Diagram

Airport diagram for GYY

Airport diagram PDF

Sectional Chart

Flight Planning
at skyvector.com

Satellite Image

Google Maps Satellite view

 

Copyright © 2004-2018 Karl L. Swartz. All rights reserved.
The Great Circle Mapper name and logo are trademarks of the Great Circle Mapper.
All other trademarks mentioned herein belong to their respective owners.
Please see credits for attibutions and further copyright information.

  Follow gcmap on Facebook Follow gcmap on Twitter Follow gcmap on Google+ GCmap on LinkedIn

hCard Microformat

Geo Microformat